STARLINK-34793

Satellite information

Favourite Embed

Satellite Type and Status

PAYLOADIN ORBIT

Key statistics

Satellite STARLINK-34793 at a glance.

Uptime

30

Days in orbit

Revolutions

≈ 15.4

Per day

Orbit

SSO

Sun Synchronous Orbit

Inclination

97.6

Latest

Satellite identification and parameters

Extended collection of information and parameters for STARLINK-34793.

Object identification

Identified? True

Debris? False

Object name: STARLINK-34793

International designator: 2025-165J

Object number (NORAD): 65064

Object ID (CCSDS): 65064

Country: UNITED STATES OF AMERICA (US)

Current information (Y/N): Y

RCS size: LARGE

Orbital parameters

Period: 93.545 minutes

Inclination: 97.6009 deg

SMA: 6826.137 km

Apoapsis: 449.029 km

Periapsis: 446.976 km

RAAN: 314.8647 deg

Eccentricy: 0.00015037

Argument of periapsis: 103.2491 deg

Mean anomaly: 256.8922 deg

Mean motion: 15.39360165 rev/day

Mean motion (dot): 0.00029706 rev/day2

B* drag term: 0.00076050386 1/REarth

Two-line elements (TLE)

Creation date: Aug. 30, 2025, 3:38 a.m.

Reference frame: TEME

Reference center: EARTH

Epoch: Aug. 29, 2025, 5:55 p.m. UTC

TLE line 0: 0 STARLINK-34793

TLE line 1: 1 65064U 25165J 25241.74673773 .00029706 00000-0 76050-3 0 9993

TLE line 2: 2 65064 97.6009 314.8647 0001504 103.2491 256.8922 15.39360165 5702

Live tracking on map

Real-time ground track for satellite STARLINK-34793.

In-orbit conjunctions

There are no conjunctions computed for STARLINK-34793, at the moment. Check back to stay up to date, as we update our databases every day.

Go to all conjunctions

Associated space launch

A batch of 19 satellites for the Starlink mega-constellation - SpaceX's project for space-based Internet communication system.

STARLINK-34793 was lifted into orbit during the mission ‘Falcon 9 Block 5 | Starlink Group 13-4’, on board a Falcon 9 space rocket.

The launch took place on July 31, 2025, 6:35 p.m. from Space Launch Complex 4E.

For more information about the launch, click the button.

Launch to space Falcon 9 Block 5 | Starlink Group 13-4
Falcon 9 Block 5 | Starlink Group 13-4

Agency: SpaceX

Status: Launch Successful

Launch date: July 31, 2025, 6:35 p.m. UTC

Rocket: Falcon 9

Launch pad: Space Launch Complex 4E

Location: Vandenberg SFB, CA, USA

...

Latest news about this satellite

News about space launch
SpaceX launches West Coast Falcon 9 rocket on Starlink 13-4 mission

Some classified satellites might have hitched a ride with 19 Starlink satellites launched by SpaceX from the company’s West Coast launch site on Thursday.

News about space launch
Launch Roundup: SpaceX to launch Crew-11 to ISS; ISRO and NASA launch new SAR satellite

With 10 launches scheduled from around the world, this week’s launch manifest is among the… The post Launch Roundup: SpaceX to launch Crew-11 to ISS; ISRO and NASA launch new SAR satellite appeared first on NASASpaceFlight.com.


Newsletter sign-up

Weekly statistics, charts and insights to help you stay on top of the space industry.